This is the latest recevied weather packets stored in our database for station/object KQ4JKJ. If no packets are shown the sender has not sent any weather packets the latest 1 day(s).
| Time | Temp. | Humidity | Pressure | Rain* | Wind** | Luminosity | Snow |
|---|---|---|---|---|---|---|---|
| 1836274820 | 24.44° C | 95% | 1010 hPa | 0 mm | 0 m/s | 0 W/m² | - |
| 1836274518 | 24.44° C | 95% | 1010.2 hPa | 0 mm | 0 m/s | 0 W/m² | - |
| 1836274371 | 24.44° C | 94% | 1010.1 hPa | 0 mm | 0 m/s | 0 W/m² | - |
| 1836274217 | 24.44° C | 94% | 1010.2 hPa | 0 mm | 0 m/s | 0 W/m² | - |
| 1836273916 | 24.44° C | 94% | 1010.1 hPa | 0 mm | 0 m/s | 0 W/m² | - |
| 1778052375 | 23.89° C | 83% | 1009.6 hPa | 0 mm | 0.45 m/s, 125° | 0 W/m² | - |
| 1778052074 | 23.33° C | 83% | 1009.9 hPa | 0 mm | 0.45 m/s, 114° | 0 W/m² | - |
| 1778051771 | 23.33° C | 82% | 1009.8 hPa | 0 mm | 0 m/s | 0 W/m² | - |
| 1778051468 | 23.33° C | 82% | 1009.8 hPa | 0 mm | 0 m/s | 0 W/m² | - |
| 1778051165 | 23.33° C | 82% | 1010 hPa | 0 mm | 0.89 m/s, 155° | 0 W/m² | - |
| 1778050863 | 23.33° C | 82% | 1010 hPa | 0 mm | 0.89 m/s, 123° | 0 W/m² | - |
| 1778050561 | 23.33° C | 82% | 1010 hPa | 0 mm | 0.89 m/s, 158° | 0 W/m² | - |
| 1778050257 | 23.33° C | 82% | 1010.3 hPa | 0 mm | 0.45 m/s, 153° | 0 W/m² | - |
| 1778049954 | 23.33° C | 82% | 1010.2 hPa | 0 mm | 0.89 m/s, 142° | 0 W/m² | - |
| 1778049649 | 23.89° C | 82% | 1010 hPa | 0 mm | 0.45 m/s, 144° | 0 W/m² | - |
| 1778049348 | 23.89° C | 82% | 1010.4 hPa | 0 mm | 0.89 m/s, 121° | 0 W/m² | - |
| 1778049044 | 23.89° C | 81% | 1010.2 hPa | 0 mm | 0 m/s | 0 W/m² | - |
| 1778048743 | 23.89° C | 81% | 1010.2 hPa | 0 mm | 0.45 m/s, 124° | 0 W/m² | - |
| 1778048439 | 23.89° C | 81% | 1010.5 hPa | 0 mm | 0 m/s | 0 W/m² | - |
| 1778048135 | 23.89° C | 80% | 1010.4 hPa | 0 mm | 0 m/s | 0 W/m² | - |
| 1778047833 | 23.89° C | 80% | 1010.3 hPa | 0 mm | 0.45 m/s, 124° | 0 W/m² | - |
| 1778047532 | 23.89° C | 80% | 1010.4 hPa | 0 mm | 0.45 m/s, 131° | 0 W/m² | - |
| 1778047228 | 23.89° C | 80% | 1010.3 hPa | 0 mm | 0.89 m/s, 116° | 0 W/m² | - |
| 1778046925 | 23.89° C | 80% | 1010.4 hPa | 0 mm | 0.45 m/s, 156° | 0 W/m² | - |
| 1778046622 | 23.89° C | 80% | 1010.7 hPa | 0 mm | 0.89 m/s, 145° | 0 W/m² | - |
* Rain latest hour (hover to see other rain measurements)
** Current wind speed in m/s (hover to see current wind gust speed)